Location: Slemon Park
(46.4340°N, 63.8219°W)
Time: 13:30:55
(UTC-03:00)

ISS - All Passes

Search period start: 02 October 2014 00:00
Search period end: 12 October 2014 00:00
Orbit: 413 x 415 km, 51.6° (Epoch: 02 October)

Date Brightness Start Highest point End Pass type
(mag) Time Alt. Az. Time Alt. Az. Time Alt. Az.
02 Oct - 00:56:50 10° W 00:59:57 36° N 01:03:05 10° ENE night (unlit)
02 Oct - 02:34:02 10° WNW 02:37:09 36° N 02:40:16 10° E night (unlit)
02 Oct - 04:10:44 10° WNW 04:14:04 76° SSW 04:17:23 10° SE visible
02 Oct - 05:48:41 10° WSW 05:50:16 13° SW 05:51:50 10° SSW visible
02 Oct - 22:30:44 10° SW 22:33:57 47° SE 22:37:11 10° ENE night (unlit)
03 Oct - 00:07:29 10° W 00:10:42 43° NNW 00:13:54 10° ENE night (unlit)
03 Oct - 01:44:49 10° WNW 01:47:52 32° N 01:50:56 10° ENE night (unlit)
03 Oct - 03:21:35 10° WNW 03:24:55 73° NNE 03:28:14 10° ESE night (unlit)
03 Oct - 04:58:45 10° W 05:01:19 21° SW 05:03:53 10° S visible
03 Oct - 21:41:56 10° SSW 21:44:53 29° SE 21:47:50 10° E night (unlit)
03 Oct - 23:18:09 10° W 23:21:26 56° NNW 23:24:44 10° ENE night (unlit)
04 Oct - 00:55:31 10° WNW 00:58:33 32° N 01:01:35 10° ENE night (unlit)
04 Oct - 02:32:24 10° WNW 02:35:41 52° NNE 02:38:57 10° E night (unlit)
04 Oct - 04:09:15 10° WNW 04:12:17 33° SW 04:15:18 10° SSE night (unlit)
04 Oct - 20:53:27 10° S 20:55:50 19° SE 20:58:14 10° E visible
04 Oct - 22:28:52 10° WSW 22:32:12 80° NNW 22:35:32 10° ENE night (unlit)
05 Oct - 00:06:08 10° WNW 00:09:12 33° N 00:12:16 10° ENE night (unlit)
05 Oct - 01:43:12 10° WNW 01:46:23 41° NNE 01:49:33 10° E night (unlit)
05 Oct - 03:19:54 10° WNW 03:23:10 53° SSW 03:26:25 10° SE night (unlit)
05 Oct - 20:05:44 10° SSE 20:06:50 11° SE 20:07:56 10° ESE visible
05 Oct - 21:39:40 10° SW 21:42:58 68° SSE 21:46:17 10° ENE visible
05 Oct - 23:16:41 10° W 23:19:50 37° NNW 23:22:58 10° ENE night (unlit)
06 Oct - 00:53:55 10° WNW 00:57:01 35° N 01:00:07 10° ENE night (unlit)
06 Oct - 02:30:37 10° WNW 02:33:57 84° SSW 02:37:17 10° ESE night (unlit)
06 Oct - 04:08:17 10° W 04:10:12 15° SW 04:12:07 10° S night (unlit)
06 Oct - 20:50:36 10° SW 20:53:46 42° SE 20:56:56 10° ENE visible
06 Oct - 22:27:14 10° W 22:30:27 46° NNW 22:33:41 10° ENE night (unlit)
07 Oct - 00:04:34 10° WNW 00:07:37 32° N 00:10:39 10° ENE night (unlit)
07 Oct - 01:41:21 10° WNW 01:44:40 66° NNE 01:47:59 10° ESE night (unlit)
07 Oct - 03:18:24 10° W 03:21:07 23° SW 03:23:50 10° SSE night (unlit)
07 Oct - 20:01:45 10° SSW 20:04:35 26° SE 20:07:25 10° E visible
07 Oct - 21:37:47 10° WSW 21:41:05 61° NNW 21:44:24 10° ENE visible
07 Oct - 23:15:07 10° WNW 23:18:10 32° N 23:21:12 10° ENE night (unlit)
08 Oct - 00:52:03 10° WNW 00:55:18 48° NNE 00:58:33 10° E night (unlit)
08 Oct - 02:28:50 10° WNW 02:31:57 37° SW 02:35:03 10° SSE night (unlit)
08 Oct - 19:13:16 10° S 19:15:26 16° SE 19:17:36 10° E visible
08 Oct - 20:48:24 10° WSW 20:51:44 88° NNW 20:55:04 10° ENE visible
08 Oct - 22:25:36 10° WNW 22:28:41 34° N 22:31:46 10° ENE visible
09 Oct - 00:02:43 10° WNW 00:05:52 39° NNE 00:09:02 10° E night (unlit)
09 Oct - 01:39:24 10° WNW 01:42:41 61° SSW 01:45:58 10° SE night (unlit)
09 Oct - 19:59:07 10° SW 20:02:23 60° SSE 20:05:41 10° ENE visible
09 Oct - 21:36:02 10° W 21:39:12 39° NNW 21:42:22 10° ENE visible
09 Oct - 23:13:18 10° WNW 23:16:23 34° N 23:19:28 10° ENE night (unlit)
10 Oct - 00:50:00 10° WNW 00:53:21 87° NNE 00:56:40 10° ESE night (unlit)
10 Oct - 02:27:26 10° W 02:29:39 17° SW 02:31:50 10° S night (unlit)
10 Oct - 19:09:59 10° SSW 19:13:05 37° SE 19:16:11 10° ENE visible
10 Oct - 20:46:28 10° W 20:49:43 49° NNW 20:52:58 10° ENE visible
10 Oct - 22:23:48 10° WNW 22:26:51 32° N 22:29:53 10° ENE visible
11 Oct - 00:00:37 10° WNW 00:03:55 60° NNE 00:07:13 10° ESE night (unlit)
11 Oct - 01:37:34 10° W 01:40:25 27° SW 01:43:16 10° SSE night (unlit)
11 Oct - 18:21:07 10° SSW 18:23:48 23° SE 18:26:30 10° E daylight
11 Oct - 19:56:55 10° WSW 20:00:14 67° NNW 20:03:33 10° ENE visible
11 Oct - 21:34:14 10° WNW 21:37:16 32° N 21:40:19 10° ENE visible
11 Oct - 23:11:12 10° WNW 23:14:25 45° NNE 23:17:39 10° E night (unlit)
